Flag for Japan Weather past 2 weeks in Okayama, Japan

Now
41 °F

Sprinkles. Fog.


Feels Like: 36 °F
Forecast: 34 / 47 °F
Wind: 8 mph from Northeast

Location: Okayama Airport

Current Time: Mar 3, 2015 at 10:13:41 PM

Latest Report: Mar 3, 2015 at 9:00 PM


Visibility: 2 mi

Pressure: 29.71 "Hg

Humidity: 93%

Dew point: 39 °F

Location of OkayamaLocation

Historic Weather in Okayama — Graph

°F

Okayama temperature yesterday

Maximum temperature yesterday: 50 °F (at 3:00 PM)
Minimum temperature yesterday: 34 °F (at 7:00 AM)
Average temperature yesterday: 43 °F

Past Weeks' High & Low Weather Summary

 TemperatureHumidityPressure
High54 °F (Feb 22, 2:00 PM)100% (Feb 17, 8:00 AM)30.33 "Hg (Feb 17, 8:00 AM)
Low28 °F (Feb 21, 7:00 AM)30% (Feb 25, 3:00 PM)29.71 "Hg (Mar 3, 9:00 PM)
Average43 °F69%30.02 "Hg
* Reported Feb 16 9:00 PM — Mar 3 9:00 PM, Okayama, Weather by CustomWeather, © 2015

Note: Actual official high and low records may vary slightly from our data, if they occured in-between our weather recording intervals... More about our weather records

Advertising

Okayama weather history for previous 24 hours

 ConditionsComfort  
Time TempWeatherWind HumidityBarometerVisibility
9:00 PM
Tue, Mar 3
41 °FSprinkles. Fog.8 mph93%29.71 "Hg2 mi
8:00 PM39 °FSprinkles. Fog.7 mph100%29.74 "Hg3 mi
7:00 PM41 °FRain showers. Fog.8 mph93%29.77 "Hg2 mi
6:50 PM39 °FRain showers. Fog.9 mph100%29.77 "Hg2 mi
6:00 PM39 °FLight rain. Fog.9 mph93%29.80 "Hg2 mi
5:00 PM39 °FLight rain. Fog.9 mph93%29.80 "Hg2 mi
4:00 PM39 °FLight rain. Fog.7 mph93%29.83 "Hg2 mi
3:00 PM39 °FLight rain. Fog.6 mph93%29.86 "Hg2 mi
2:00 PM39 °FRain. Fog.5 mph93%29.89 "Hg2 mi
1:00 PM39 °FRain. Fog.8 mph81%29.95 "Hg2 mi
12:00 PM41 °FPartly sunny.8 mph70%29.98 "HgN/A
11:00 AM39 °FPartly sunny.8 mph70%30.04 "HgN/A
10:00 AM37 °FBroken clouds.7 mph75%30.04 "HgN/A
9:00 AM37 °FBroken clouds.6 mph81%30.04 "HgN/A
8:00 AM36 °FPartly sunny.2 mph87%30.07 "HgN/A
7:00 AM34 °FBroken clouds.7 mph81%30.04 "HgN/A
Weather by CustomWeather, © 2015

See weather overviewHow to use our weather pages